Location: Hurstbourne Priors
(51.2000°N, 1.3667°W)
Time: 08:28:13
(UTC+00:00)

STARLINK-1226 - Pass Details

Date: 09 April 2020
Orbit: 377 x 382 km, 53.0° (Epoch: 25 May)

Event Time Altitude Azimuth Distance (km) Brightness Sun altitude
Rises 19:43:38 0° 288° (WNW) 2,269 9.1 -8.4°
Reaches altitude 10° 19:45:44 10° 283° (WNW) 1,412 7.3 -8.7°
Maximum altitude 19:48:47 48° 207° (SSW) 510 3.5 -9.1°
Enters shadow 19:51:24 13° 134° (SE) 1,231 4.8 -9.5°
